LEBL Weather Reports


time (UTC)temp
C
wind
direction
speed
KPH
gust
KPH
rain 1hr
cm
rain 24hr
cm
rain mn
cm
humidity
%
barometer
mb
20260507221504 17 80 4.8 0.0 0.00 0.00 0.00 77 1014.0
20260507220005 17 90 9.7 0.0 0.00 0.00 0.00 77 1014.0
20260507213004 17 60 4.8 0.0 0.00 0.00 0.00 77 1014.0
20260507210005 17 50 8.0 0.0 0.00 0.00 0.00 77 1014.0
20260507204505 17 50 8.0 0.0 0.00 0.00 0.00 77 1014.0
20260507201504 17 60 9.7 0.0 0.00 0.00 0.00 77 1013.0
20260507200004 17 70 9.7 0.0 0.00 0.00 0.00 77 1013.0
20260507194504 17 70 9.7 0.0 0.00 0.00 0.00 77 1013.0
20260507191504 17 80 11.3 0.0 0.00 0.00 0.00 72 1013.0
20260507190005 17 80 11.3 0.0 0.00 0.00 0.00 72 1012.0
20260507183003 17 80 12.9 0.0 0.00 0.00 0.00 72 1012.0
20260507181504 17 80 12.9 0.0 0.00 0.00 0.00 72 1012.0
20260507180005 17 100 12.9 0.0 0.00 0.00 0.00 72 1012.0
20260507171504 18 90 14.5 0.0 0.00 0.00 0.00 68 1012.0
20260507170004 17 100 14.5 0.0 0.00 0.00 0.00 67 1012.0
20260507160004 18 90 19.3 0.0 0.00 0.00 0.00 63 1012.0
20260507154503 18 90 19.3 0.0 0.00 0.00 0.00 63 1012.0
20260507151505 18 90 1.6 0.0 0.00 0.00 0.00 63 1012.0
20260507144504 18 90 19.3 0.0 0.00 0.00 0.00 63 1013.0
20260507141504 18 100 19.3 0.0 0.00 0.00 0.00 59 1013.0
20260507140004 18 110 19.3 0.0 0.00 0.00 0.00 59 1013.0
20260507134504 18 110 19.3 0.0 0.00 0.00 0.00 59 1013.0
20260507133004 18 110 20.9 0.0 0.00 0.00 0.00 63 1014.0
20260507131504 18 110 20.9 0.0 0.00 0.00 0.00 63 1014.0
20260507124504 18 120 20.9 0.0 0.00 0.00 0.00 63 1014.0
20260507123005 18 100 19.3 0.0 0.00 0.00 0.00 68 1014.0
20260507120005 18 90 20.9 0.0 0.00 0.00 0.00 63 1014.0
20260507114504 18 90 20.9 0.0 0.00 0.00 0.00 63 1014.0
20260507113005 18 100 20.9 0.0 0.00 0.00 0.00 63 1014.0
20260507111504 18 100 20.9 0.0 0.00 0.00 0.00 63 1014.0
20260507110005 17 80 22.5 0.0 0.00 0.00 0.00 67 1015.0
20260507104504 17 80 22.5 0.0 0.00 0.00 0.00 67 1015.0
20260507103005 18 90 20.9 0.0 0.00 0.00 0.00 63 1014.0
20260507101504 18 90 20.9 0.0 0.00 0.00 0.00 63 1014.0
20260507091504 17 100 20.9 0.0 0.00 0.00 0.00 67 1014.0
20260507090005 17 60 1.6 0.0 0.00 0.00 0.00 77 1014.0
20260507083005 17 350 8.0 0.0 0.00 0.00 0.00 72 1014.0
20260507081503 17 350 8.0 0.0 0.00 0.00 0.00 72 1014.0
20260507080004 15 330 11.3 0.0 0.00 0.00 0.00 76 1014.0
20260507064504 12 330 12.9 0.0 0.00 0.00 0.00 82 1013.0
20260507063004 12 330 12.9 0.0 0.00 0.00 0.00 82 1013.0
20260507061504 12 330 12.9 0.0 0.00 0.00 0.00 82 1013.0
20260507053004 12 340 9.7 0.0 0.00 0.00 0.00 87 1013.0
20260507050005 12 330 11.3 0.0 0.00 0.00 0.00 87 1013.0
20260507043004 12 330 11.3 0.0 0.00 0.00 0.00 87 1013.0
20260507041503 12 330 11.3 0.0 0.00 0.00 0.00 87 1013.0
20260507040005 12 330 11.3 0.0 0.00 0.00 0.00 87 1013.0
20260507034504 12 330 11.3 0.0 0.00 0.00 0.00 87 1013.0
20260507031515 13 330 9.7 0.0 0.00 0.00 0.00 82 1013.0
20260507030004 13 40 9.7 0.0 0.00 0.00 0.00 82 1013.0
20260507024503 13 40 9.7 0.0 0.00 0.00 0.00 82 1013.0
20260507021503 15 50 12.9 0.0 0.00 0.00 0.00 76 1013.0
20260507014503 13 350 9.7 0.0 0.00 0.00 0.00 82 1013.0
20260507013005 15 340 9.7 0.0 0.00 0.00 0.00 76 1014.0
20260507011503 15 340 9.7 0.0 0.00 0.00 0.00 76 1014.0
20260507004504 13 330 11.3 0.0 0.00 0.00 0.00 76 1014.0
20260507003005 13 330 8.0 0.0 0.00 0.00 0.00 76 1013.0
20260507001504 13 330 8.0 0.0 0.00 0.00 0.00 76 1013.0
20260507000004 13 330 8.0 0.0 0.00 0.00 0.00 76 1013.0
20260506230004 15 310 8.0 0.0 0.00 0.00 0.00 76 1014.0
20260506224504 15 310 8.0 0.0 0.00 0.00 0.00 76 1014.0
20260506223005 16 20 1.6 0.0 0.00 0.00 0.00 72 1013.0